Regional Weather Roundup
Issued by NWS Northern Indiana

Home | Current Version | Previous Version | Graphics & Text | Print | Product List | Glossary On
Versions: 1 2 3 4 5 6 7 8 9 10 11 12 13 14 15 16 17 18 19 20 21 22 23 24 25 26 27 28 29 30 31 32 33 34 35 36 37 38 39 40 41 42 43 44 45 46 47 48 49 50
000
ASUS43 KIWX 180400
RWRIWX

KIWX WEATHER ROUNDUP
NATIONAL WEATHER SERVICE NORTHERN INDIANA
1200 AM EDT THU SEP 18 2014

NOTE: "FAIR" INDICATES FEW OR NO CLOUDS BELOW 12,000 FEET WITH NO
SIGNIFICANT WEATHER AND/OR OBSTRUCTIONS TO VISIBILITY.

* THESE STATIONS ARE NOT UNDER NWS QUALITY CONTROL. THEY ALSO MAY NOT
  REPORT WEATHER SUCH AS PRECIPITATION OR FOG.

INZ001>027-180500-
NORTHERN INDIANA

CITY           SKY/WX    TMP DP  RH WIND       PRES   REMARKS
VALPARAISO     CLEAR     50  46  86 NE3       30.04R
KNOX*          CLEAR     48  46  92 CALM      30.03S
SOUTH BEND     CLEAR     49  45  86 CALM      30.04S
GOSHEN         CLEAR     46  43  89 CALM      30.04R
WARSAW*        CLEAR     46  45  93 CALM      30.04R
ANGOLA*        CLEAR     48  48 100 CALM      30.03S
FORT WAYNE     CLEAR     52  47  83 NW6       30.03R
PERU/GRISSOM   CLEAR     52  52  99 NE3       30.03R

$$
INZ028>050-180500-
CENTRAL INDIANA

CITY           SKY/WX    TMP DP  RH WIND       PRES   REMARKS
LAFAYETTE      MOCLDY    52  51  97 CALM      30.03R
KOKOMO*        CLEAR     50  46  87 CALM      30.04R
MUNCIE*        CLEAR     51  48  89 CALM      30.02R
INDIANAPOLIS   CLEAR     54  50  86 W6        30.02S

$$
MIZ043>046-050>051-056>058-064>065-071>073-077>080-180500-
SOUTHWEST LOWER MICHIGAN

CITY           SKY/WX    TMP DP  RH WIND       PRES   REMARKS
BATTLE CREEK   CLEAR     49  45  86 CALM      30.04R
BENTON HARBOR  CLEAR     45  44  97 CALM      30.03S
COLDWATER*     CLEAR     48  47  96 CALM      30.03S
HILLSDALE*     CLEAR     47  46  98 CALM      30.03S
HOLLAND        CLEAR     48  45  89 CALM      30.04R
GRAND RAPIDS   CLEAR     49  45  86 SE3       30.04R
KALAMAZOO      CLEAR     46  44  93 CALM      30.04R
STURGIS*       CLEAR     46  45  93 CALM      30.03S
THREE RIVERS*  FAIR      46  44  92 CALM      30.04S

$$
OHZ001>008-015>018-024>025-180500-
NORTHWEST OHIO

CITY           SKY/WX    TMP DP  RH WIND       PRES   REMARKS
DEFIANCE       CLEAR     51  48  89 CALM      30.03R
FINDLAY        CLEAR     51  47  86 CALM      30.01R
TOLEDO EXPRESS CLEAR     50  48  93 CALM      30.02R
TOLEDO METCALF PTCLDY    55  46  71 CALM      30.02R
LIMA           CLEAR     51  48  89 CALM      30.02R

$$
&&



USA.gov is the U.S. government's official web portal to all federal, state and local government web resources and services.